Skip Page Navigation
NASA JPL Caltech
NASA Logo - Jet Propulsion Laboratory + View the NASA Portal
+ Center for Near-Earth Object Studies
JPL Home Earth Solar System Stars & Galaxies Technology
JPL Solar System Dynamics
BODIES ORBITS EPHEMERIDES TOOLS PHYSICAL DATA DISCOVERY FAQ SITE MAP
JPL Small-Body Database Browser
Search: [ help ]  
233334 (2006 CO30)
Classification: Main-belt Asteroid          SPK-ID: 2233334
Ephemeris | Orbit Diagram | Orbital Elements | Mission Design | Physical Parameters | Discovery Circumstances ]

[ show orbit diagram ]
Orbital Elements at Epoch 2459000.5 (2020-May-31.0) TDB
Reference: JPL 18 (heliocentric ecliptic J2000)
 Element Value Uncertainty (1-sigma)   Units 
e .08697242271607344 4.9623e-08  
a 2.408789235021658 1.5673e-08 au
q 2.199290999439428 1.2567e-07 au
i 4.652218050435634 7.1288e-06 deg
node 184.9727968873066 5.3485e-05 deg
peri 245.8212094808463 6.6594e-05 deg
M 1.793875309546264 4.1316e-05 deg
tp 2458993.695654131272
(2020-May-24.19565413)
0.0001567 TDB
period 1365.515484664062
3.74
1.3327e-05
3.649e-08
d
yr
n .2636367028006025 2.573e-09 deg/d
Q 2.618287470603889 1.7036e-08 au
  Orbit Determination Parameters
   # obs. used (total)      220  
   data-arc span      9893 days (27.09 yr)  
   first obs. used      1993-09-19  
   last obs. used      2020-10-20  
   planetary ephem.      DE431  
   SB-pert. ephem.      SB431-N16  
   condition code      0  
   norm. resid. RMS      .53765  
   source      ORB  
   producer      Otto Matic  
   solution date      2020-Nov-12 01:54:07  

Additional Information
 Earth MOID = 1.21825 au 
 Jupiter MOID = 2.5894 au 
 T_jup = 3.511 
[ show covariance matrix ]

Ephemeris | Orbit Diagram | Orbital Elements | Mission Design | Physical Parameters | Discovery Circumstances ]

Physical Parameter Table
Parameter Symbol Value Units Sigma Reference Notes
absolute magnitude H 16.9   n/a MPO450069  

233334 (2006 CO30)          Discovered 2006-Feb-02 by Spacewatch at Kitt Peak
Reference: 20100228/Numbers.arcLast Updated: 2010-03-03

Alternate Designations
 2006 CO30 = 2004 RD146 
Ephemeris | Orbit Diagram | Orbital Elements | Mission Design | Physical Parameters | Discovery Circumstances ]
ABOUT SSD CREDITS/AWARDS PRIVACY/COPYRIGHT GLOSSARY LINKS
FirstGov 2020-Nov-29 11:00 UT
(server date/time)  
NASA Home Page
Site Manager:   Ryan S. Park
Webmaster  Alan B. Chamberlin